Weather Roundup
Issued by NWS Corpus Christi, TX

Home | Current Version | Previous Version | Text Only | Print | Product List | Glossary On
Versions: 1 2 3 4 5 6 7 8 9 10 11 12 13 14 15 16 17 18 19 20 21 22 23 24 25 26 27 28 29 30 31 32 33 34 35 36 37 38 39 40 41 42 43 44 45 46 47 48 49 50
000
ASUS44 KCRP 090510
HRRCRP

SOUTH TEXAS REGIONAL WEATHER ROUNDUP
NATIONAL WEATHER SERVICE CORPUS CHRISTI TX
1100 PM CST THU DEC 08 2016


TXZ229>244-090600-
...CORPUS CHRISTI AREA OBSERVATIONS...

CITY           SKY/WX    TMP DP  RH WIND       PRES   REMARKS
CORPUS CHRISTI CLOUDY    42  32  67 N20       30.57R
NAS CORPUS CHR CLOUDY    41  35  79 N25       30.55S
ROCKPORT         N/A    N/A N/A N/A MISG      30.56S
ALICE            N/A    N/A N/A N/A MISG      30.58R
ORANGE GROVE   CLOUDY    42  32  67 N14       30.59R
FALFURRIAS     CLOUDY    44  32  63 N15G23    30.58R
$$

...VICTORIA AREA OBSERVATIONS...

CITY           SKY/WX    TMP DP  RH WIND       PRES   REMARKS
VICTORIA       CLOUDY    39  30  70 N17G24    30.58R WCI  30
BEEVILLE       CLOUDY    41  31  68 N15G21    30.58R
PLEASANTON     CLOUDY    41  24  51 N9        30.62R
SAN ANTONIO    CLOUDY    38  23  55 N17G23    30.60S WCI  28
$$

...LAREDO AREA OBSERVATIONS...

CITY           SKY/WX    TMP DP  RH WIND       PRES   REMARKS
LAREDO         CLOUDY    44  31  60 N13       30.61R
COTULLA        CLOUDY    44  27  51 N10       30.61S
DEL RIO        CLOUDY    39  26  59 N7        30.62F
MCALLEN        LGT RAIN  45  40  82 N12       30.57R
HEBBRONVILLE   CLOUDY    42  32  68 N13G18    30.58R
$$

...OTHER TEXAS OBSERVATIONS...

CITY           SKY/WX    TMP DP  RH WIND       PRES   REMARKS
BROWNSVILLE    CLOUDY    43  40  89 NW23G33   30.48S
HOUSTON        MOCLDY    41  31  67 N17       30.57S
COL. STATION   CLOUDY    36  22  56 N15G23    30.63S WCI  27
AUSTIN         CLOUDY    37  20  50 N16       30.63S WCI  28
WACO           CLOUDY    32  21  64 NW8       30.67S
FORT WORTH     PTCLDY    30  15  53 N9        30.67R
WICHITA FALLS  CLOUDY    25  13  60 N5        30.69S
LUBBOCK        CLOUDY    27  15  61 S9        30.56R
EL PASO        CLEAR     31  24  75 N3        30.43S
$$

...MARINE OBSERVATIONS...

STATION/POSITION TIME  SKY/WX   TEMP    WIND        PRES    VSBY  WAVE   SWELL
                                AIR SEA DIR/SP/G                  HT/PER HT/PER
                 (UTC)          (F)     (DEG/KT/KT) (MB)    (MI)  (FT/S) (FT/S)
PORT ARANSAS     0500            43 60  360/ 22/ 25 1033.8R
BUOY 90 E PORT A 0350            57 76   10/ 27/ 33 1029.8         11/ 9   5/ 9
BUOY 45 SE BAFFI 0450            56 76   20/ 25/ 33 1030.3S        11/10   7/10
BUOY 200 E PT IS 0450            68 77   30/ 29/ 35 1023.2R        16/10   2/17
BUOY 15 E GALVES 0450            48 65   10/ 25/ 31 1032.4R         6/ 6
$$



USA.gov is the U.S. government's official web portal to all federal, state and local government web resources and services.